sat.trackr.live / text

‹ back to catalog

STARLINK-36527

NORAD 67631 · 2026-020Q

PAYLOAD ACTIVE UNKNOWN

§ Identity

Operator
Country
US
Launch date
2026-01-30
Launch site
AFETR
Launch vehicle
Mass (kg)
RCS (m²)

Purposes: comms

External: N2YO · Heavens-Above · Gunter

§ Orbital elements

Epoch: 2026-05-25T03:48:11.782080Z

Period
94.27 min
Inclination
43.0024°
Eccentricity
0.0001255
Mean motion
15.27595222 rev/d
Perigee alt
482.1 km
Apogee alt
483.9 km
Semi-major
6,861.1 km
B*
5.4665e-4
RAAN
68.3437°
Arg perigee
266.4068°
Mean anomaly
93.6640°
Rev number
1,780

§ Raw data

STARLINK-365271 67631U 26020Q   26145.15846970  .00014818  00000+0  54665-3 0  99912 67631  43.0024  68.3437 0001255 266.4068  93.6640 15.27595222 17808

JSON: /api/v1/satellites/67631 · /tle

For live sub-satellite position, see the globe view (requires WebGL).

§ Visibility from observer

Set your observer location to see the next 7 days of passes ≥ 10°. The values pass through the URL so the page stays shareable.

No JS? Fill the form by hand. The geolocation button needs JavaScript.